[[{"header":{"parameterUnit":"m.s-1","parameterCategory":1,"la1":30.2991,"la2":30.254,"lo1":-89.0895,"lo2":-89.0444,"dy":0.0017,"dx":0.0017,"nx":28,"ny":28,"refTime":"2024-06-21T09:00:00:Z","depth":0,"parameterNumber":2,"parameterNumberName":"U-component_of_WINDS"},"data":[0,0,0,0,0,0,0,0,0,0,0,0,0,0,0,0,0,0,0,0,0,0,0,0,0,0,0,0,0,0,0,0,0,0,0,0,0,0,0,0,0,0,0,0,0,0,0,0,0,0,0,0,0,0,0,0,0,0,-0.4906,-0.4906,0,-0.4877,-0.4876,-0.4876,-0.4833,-0.4833,-0.4832,-0.4831,-0.48,-0.48,-0.48,0,0,0,0,0,0,0,0,0,0,0,0,0,-0.4926,-0.4926,-0.4906,-0.4906,-0.4906,-0.4877,-0.4876,-0.4876,-0.4833,-0.4833,-0.4832,-0.4831,-0.48,-0.48,-0.48,0,0,0,0,0,0,0,0,0,0,0,0,0,-0.4909,-0.4926,-0.4906,-0.4881,-0.4878,-0.4877,-0.4876,-0.4876,-0.4834,-0.4833,-0.4831,-0.483,-0.48,-0.48,-0.48,-0.4821,0,0,-0.4799,-0.4799,0,0,0,0,0,0,0,0,-0.491,-0.4908,-0.4885,-0.4883,-0.488,-0.4858,-0.4872,-0.4857,-0.4834,-0.4851,-0.4831,-0.483,-0.482,-0.4818,-0.4815,-0.4819,-0.4818,-0.4799,-0.4799,-0.4799,-0.4799,0,0,0,0,0,0,0,-0.4911,-0.4909,-0.4894,-0.4885,-0.4882,-0.4871,-0.4867,-0.4869,-0.4842,-0.4849,-0.4846,-0.4843,-0.4819,-0.4816,-0.4814,-0.4818,-0.4799,-0.4799,-0.4799,-0.4799,-0.4838,-0.4839,0,0,0,0,0,0,-0.4916,-0.4911,-0.4895,-0.4894,-0.4892,-0.4871,-0.4867,-0.4866,-0.4842,-0.4837,-0.4844,-0.4841,-0.4816,-0.4814,-0.4813,-0.4836,-0.4799,-0.4799,-0.4799,-0.4837,-0.4838,-0.4839,0,0,0,0,0,0,-0.4917,-0.4915,-0.4897,-0.4901,-0.4898,-0.4872,-0.4871,-0.4866,-0.4863,-0.4838,-0.4833,-0.4846,-0.4815,-0.4813,-0.4819,-0.4834,-0.4799,-0.4799,-0.4835,-0.4837,-0.4839,-0.4882,0,0,0,0,0,0,-0.4918,-0.4916,-0.4923,-0.4902,-0.4898,-0.4904,-0.4872,-0.4866,-0.4862,-0.4858,-0.4838,-0.4834,-0.4814,-0.482,-0.4819,-0.4833,-0.4799,-0.4834,-0.4836,-0.4838,-0.4879,-0.4885,-0.489,0,0,0,0,0,-0.4918,-0.4937,-0.4924,-0.4922,-0.4907,-0.4905,-0.4903,-0.488,-0.4864,-0.4871,-0.4856,-0.4835,-0.4833,-0.4821,-0.482,-0.4834,-0.4833,-0.4836,-0.4838,-0.4877,-0.4884,-0.489,0,0,0,0,0,0,-0.4961,-0.4933,-0.4919,-0.4931,-0.4921,-0.4898,-0.4906,-0.4888,-0.4882,-0.4878,-0.485,-0.4846,-0.4856,-0.4845,-0.4833,-0.4853,-0.483,-0.4832,-0.486,-0.4866,-0.4872,-0.4874,-0.4798,0,0,0,0,0,-0.4971,-0.4972,-0.4948,-0.4961,-0.4956,-0.4932,-0.493,-0.4914,-0.4902,-0.4897,-0.4882,-0.4871,-0.4868,-0.4866,-0.4862,-0.4878,-0.4873,-0.4887,-0.4892,-0.4897,-0.49,-0.4907,-0.4913,-0.4848,-0.4848,-0.4848,0,0,-0.4993,-0.4979,-0.4981,-0.4969,-0.4959,-0.496,-0.4929,-0.4931,-0.4932,-0.4897,-0.4902,-0.4891,-0.4877,-0.4888,-0.4892,-0.488,-0.4917,-0.49,-0.4904,-0.4904,-0.4911,-0.4917,-0.4922,-0.485,-0.4849,-0.4849,0,0,-0.5034,-0.5023,-0.5033,-0.5023,-0.5009,-0.4993,-0.4995,-0.4975,-0.4966,-0.4971,-0.4945,-0.4945,-0.494,-0.4932,-0.4927,-0.4965,-0.4945,-0.4964,-0.4993,-0.5,-0.5006,-0.501,-0.5024,-0.5029,-0.4967,-0.4967,-0.4967,0,-0.5064,-0.5064,-0.504,-0.5044,-0.504,-0.5009,-0.5018,-0.501,-0.4995,-0.4993,-0.4979,-0.4973,-0.4961,-0.497,-0.4979,-0.4976,-0.4978,-0.4966,-0.5007,-0.5011,-0.5015,-0.5028,-0.5033,-0.4969,-0.4969,-0.4969,-0.4968,0,-0.5101,-0.5102,-0.5112,-0.5098,-0.5095,-0.5102,-0.5078,-0.5078,-0.5062,-0.5047,-0.5052,-0.5037,-0.503,-0.503,-0.5015,-0.5037,-0.503,-0.5012,-0.4988,-0.5024,-0.5036,-0.504,-0.4972,-0.4972,-0.4971,-0.497,0,0,-0.5168,-0.5141,-0.5145,-0.5138,-0.512,-0.512,-0.5126,-0.5118,-0.5119,-0.5109,-0.5113,-0.511,-0.5094,-0.5088,-0.5071,-0.5078,-0.5109,-0.5059,-0.5058,-0.5069,-0.5133,-0.5147,-0.5153,-0.5096,-0.5097,-0.5098,-0.5135,0,-0.5206,-0.5214,-0.5192,-0.5205,-0.5206,-0.5177,-0.5182,-0.5171,-0.5158,-0.5156,-0.5141,-0.514,-0.5118,-0.5114,-0.512,-0.5104,-0.5122,-0.5101,-0.51,-0.51,-0.5104,-0.5159,-0.5174,-0.521,-0.5139,-0.514,-0.514,0,-0.5251,-0.5244,-0.5257,-0.5238,-0.5238,-0.5243,-0.5234,-0.5233,-0.5221,-0.5211,-0.5205,-0.5185,-0.5189,-0.5166,-0.5171,-0.5157,-0.5155,-0.5148,-0.5149,-0.5148,-0.5123,-0.516,-0.522,-0.5226,-0.5147,-0.5147,-0.5146,0,-0.5298,-0.5293,-0.53,-0.5295,-0.5273,-0.5277,-0.5268,-0.5255,-0.5252,-0.5245,-0.5242,-0.5236,-0.5232,-0.5228,-0.5206,-0.5191,-0.5214,-0.5189,-0.5206,-0.5207,-0.5212,-0.5212,-0.5273,-0.5211,-0.5211,-0.5211,-0.5211,0,-0.5343,-0.5352,-0.5321,-0.5326,-0.5336,-0.5311,-0.5321,-0.5309,-0.5297,-0.5299,-0.5273,-0.5276,-0.5247,-0.5247,-0.523,-0.5237,-0.5236,-0.5228,-0.5223,-0.523,-0.5231,-0.5229,-0.5226,-0.5212,-0.5212,-0.5212,-0.5211,0,-0.5398,-0.5378,-0.5384,-0.5363,-0.5357,-0.5366,-0.5347,-0.5351,-0.5336,-0.5339,-0.5338,-0.5315,-0.5312,-0.5291,-0.5284,-0.5272,-0.5286,-0.5277,-0.5291,-0.5288,-0.5306,-0.5305,-0.5367,-0.5375,-0.5307,-0.5308,-0.5309,0,-0.5428,-0.5435,-0.5414,-0.5414,-0.5406,-0.5405,-0.5402,-0.5378,-0.5376,-0.5362,-0.5367,-0.5363,-0.5358,-0.5356,-0.5338,-0.5333,-0.5323,-0.5346,-0.5322,-0.5329,-0.5324,-0.5324,-0.5325,-0.5351,-0.5352,-0.5352,-0.5353,0,-0.5484,-0.5473,-0.547,-0.5463,-0.546,-0.5454,-0.5446,-0.5447,-0.542,-0.5419,-0.5416,-0.5413,-0.5405,-0.5402,-0.5393,-0.5384,-0.5364,-0.536,-0.5364,-0.5372,-0.5379,-0.5376,-0.5304,-0.5359,-0.5359,-0.5358,-0.5358,-0.5358,-0.5527,-0.5532,-0.5518,-0.5516,-0.5507,-0.55,-0.5502,-0.5488,-0.5485,-0.5478,-0.5463,-0.5463,-0.545,-0.5437,-0.5429,-0.5428,-0.5417,-0.5422,-0.5423,-0.5425,-0.5429,-0.5379,-0.5427,-0.5427,-0.5426,-0.5426,-0.5426,0,-0.5582,-0.5572,-0.5569,-0.5559,-0.5557,-0.5538,-0.5529,-0.5528,-0.5528,-0.5518,-0.5514,-0.5511,-0.5507,-0.5489,-0.5484,-0.5487,-0.5478,-0.5486,-0.5486,-0.5484,-0.544,-0.5437,-0.5494,-0.5494,-0.5494,-0.5494,-0.5494,-0.5494,-0.561,-0.5617,-0.5605,-0.5608,-0.5597,-0.5597,-0.5593,-0.5587,-0.5578,-0.5576,-0.5573,-0.5561,-0.5548,-0.5541,-0.5537,-0.5532,-0.5531,-0.5543,-0.5535,-0.5494,-0.5487,-0.5481,-0.5479,-0.5543,-0.5543,-0.5579,-0.5579,-0.558]},{"header":{"parameterUnit":"m.s-1","parameterCategory":1,"la1":30.2991,"la2":30.254,"lo1":-89.0895,"lo2":-89.0444,"dy":0.0017,"dx":0.0017,"nx":28,"ny":28,"refTime":"2024-06-21T09:00:00:Z","depth":0,"parameterNumber":3,"parameterNumberName":"V-component_of_WINDS"},"data":[0,0,0,0,0,0,0,0,0,0,0,0,0,0,0,0,0,0,0,0,0,0,0,0,0,0,0,0,0,0,0,0,0,0,0,0,0,0,0,0,0,0,0,0,0,0,0,0,0,0,0,0,0,0,0,0,0,0,2.0936,2.0937,0,2.0942,2.0942,2.0942,2.092,2.092,2.0919,2.0918,2.0924,2.0924,2.0925,0,0,0,0,0,0,0,0,0,0,0,0,0,2.0906,2.0906,2.0936,2.0937,2.0937,2.0942,2.0942,2.0942,2.092,2.092,2.0919,2.0918,2.0923,2.0924,2.0925,0,0,0,0,0,0,0,0,0,0,0,0,0,2.0916,2.0907,2.0936,2.0926,2.0926,2.0942,2.0942,2.0942,2.0921,2.092,2.0919,2.0918,2.0923,2.0924,2.0925,2.0952,0,0,2.0929,2.0929,0,0,0,0,0,0,0,0,2.0916,2.0917,2.0928,2.0927,2.0926,2.093,2.0933,2.0945,2.0921,2.0922,2.0918,2.0917,2.0926,2.0927,2.093,2.0952,2.0952,2.0929,2.0929,2.093,2.093,0,0,0,0,0,0,0,2.0915,2.0917,2.0939,2.0928,2.0927,2.0921,2.0922,2.0935,2.093,2.0922,2.0921,2.0922,2.0926,2.0929,2.093,2.0952,2.0929,2.093,2.093,2.0931,2.0995,2.0996,0,0,0,0,0,0,2.0916,2.0916,2.0938,2.0939,2.0918,2.0923,2.0923,2.0929,2.093,2.0929,2.0922,2.0921,2.0928,2.0929,2.093,2.096,2.093,2.0931,2.0932,2.0994,2.0995,2.0996,0,0,0,0,0,0,2.0915,2.0918,2.0938,2.0927,2.0929,2.0924,2.0932,2.093,2.0934,2.093,2.0929,2.0927,2.0927,2.0929,2.0946,2.096,2.0932,2.0933,2.0993,2.0994,2.0996,2.1022,0,0,0,0,0,0,2.0914,2.0918,2.0928,2.0928,2.093,2.0954,2.0932,2.0931,2.0936,2.0933,2.0934,2.0933,2.0927,2.0945,2.0948,2.0961,2.0933,2.0991,2.0993,2.0995,2.1019,2.1024,2.1028,0,0,0,0,0,2.0913,2.0935,2.0928,2.0931,2.0943,2.0955,2.0957,2.0949,2.0937,2.0947,2.0944,2.0933,2.0959,2.0947,2.095,2.0964,2.099,2.0993,2.0995,2.1018,2.1023,2.1027,0,0,0,0,0,0,2.0937,2.0935,2.0928,2.095,2.0953,2.0952,2.0964,2.0955,2.0961,2.0959,2.0949,2.0949,2.0968,2.0968,2.0955,2.0989,2.0972,2.0975,2.0989,2.0994,2.0998,2.0997,2.0934,0,0,0,0,0,2.0945,2.0955,2.0953,2.0973,2.0975,2.0969,2.0974,2.0968,2.0971,2.0972,2.0971,2.0974,2.0982,2.0988,2.0996,2.102,2.1019,2.1031,2.1035,2.1038,2.1041,2.1052,2.1057,2.1004,2.1004,2.1004,0,0,2.0961,2.0961,2.0969,2.0978,2.0979,2.099,2.097,2.0983,2.0991,2.0974,2.099,2.0989,2.0992,2.1012,2.1021,2.1013,2.1055,2.1041,2.1044,2.1045,2.1055,2.106,2.1065,2.1005,2.1005,2.1005,0,0,2.0996,2.0998,2.1014,2.1016,2.1019,2.1015,2.1019,2.1019,2.1018,2.1034,2.1021,2.103,2.1046,2.1048,2.1051,2.1086,2.1076,2.1089,2.111,2.1122,2.1126,2.113,2.1141,2.1146,2.1092,2.1092,2.1092,0,2.1016,2.1032,2.1024,2.1037,2.1041,2.1026,2.1042,2.1045,2.105,2.1053,2.1043,2.1062,2.1062,2.1083,2.1092,2.1095,2.1099,2.1089,2.1126,2.113,2.1133,2.1144,2.1149,2.1093,2.1093,2.1093,2.1093,0,2.1056,2.1067,2.108,2.1085,2.1091,2.1105,2.1099,2.1106,2.1099,2.1096,2.1112,2.1113,2.112,2.1125,2.1118,2.1144,2.1138,2.1128,2.111,2.114,2.115,2.1154,2.1096,2.1095,2.1095,2.1094,0,0,2.1106,2.1106,2.1111,2.1112,2.1114,2.1123,2.1136,2.1144,2.1149,2.1153,2.1164,2.1177,2.1167,2.1171,2.1164,2.1175,2.1202,2.1162,2.1162,2.1169,2.1229,2.1237,2.1242,2.1195,2.1196,2.1197,2.1229,0,2.1139,2.1163,2.1155,2.1179,2.1189,2.1175,2.1187,2.1189,2.1187,2.1195,2.1192,2.1201,2.1188,2.1189,2.1199,2.1196,2.1214,2.1194,2.1205,2.1205,2.1203,2.1247,2.1255,2.1285,2.1233,2.1233,2.1234,0,2.1181,2.1187,2.1212,2.1211,2.1215,2.1226,2.1231,2.1239,2.1241,2.1239,2.1243,2.1234,2.1247,2.1231,2.1248,2.1235,2.1239,2.1238,2.1239,2.1239,2.1221,2.1247,2.1295,2.1299,2.124,2.124,2.1239,0,2.1214,2.1228,2.1244,2.1246,2.1246,2.1254,2.1254,2.1256,2.126,2.1265,2.1268,2.1274,2.1278,2.1283,2.1276,2.1265,2.1295,2.1278,2.1292,2.1292,2.1298,2.1298,2.1346,2.1303,2.1303,2.1302,2.1302,0,2.1252,2.1267,2.1259,2.1268,2.1285,2.1277,2.1293,2.1292,2.1293,2.1302,2.1291,2.13,2.1291,2.1299,2.1294,2.1309,2.131,2.1308,2.1307,2.1309,2.1309,2.1311,2.1308,2.1304,2.1303,2.1303,2.1303,0,2.1291,2.1286,2.1302,2.1301,2.1301,2.1313,2.1312,2.1321,2.1318,2.1329,2.1332,2.1327,2.1335,2.1329,2.1338,2.1335,2.1354,2.135,2.1353,2.1352,2.1366,2.1365,2.1416,2.1422,2.1376,2.1376,2.1377,0,2.1315,2.1326,2.1326,2.1331,2.1333,2.1341,2.1346,2.1338,2.1343,2.1346,2.1354,2.1362,2.1368,2.1382,2.1379,2.1386,2.1381,2.1399,2.1382,2.1383,2.138,2.1379,2.138,2.1402,2.1402,2.1403,2.1403,0,2.1358,2.1355,2.1362,2.1368,2.1373,2.1378,2.1381,2.1386,2.1378,2.1384,2.1393,2.1397,2.1406,2.1414,2.1419,2.1419,2.141,2.1409,2.1412,2.1414,2.1415,2.1414,2.1361,2.1407,2.1407,2.1407,2.1406,2.1406,2.1389,2.1398,2.14,2.1408,2.1409,2.1413,2.1421,2.1418,2.1425,2.1432,2.1427,2.1437,2.1438,2.1445,2.1446,2.1453,2.1446,2.1452,2.1453,2.1454,2.1456,2.1415,2.1455,2.1454,2.1454,2.1454,2.1454,0,2.1431,2.1431,2.1438,2.1443,2.1449,2.144,2.1443,2.1449,2.1458,2.146,2.1466,2.1476,2.1483,2.148,2.1487,2.1493,2.1489,2.1495,2.1494,2.1494,2.1462,2.1458,2.1498,2.1498,2.1498,2.1498,2.1498,2.1498,2.1453,2.1468,2.1465,2.148,2.148,2.1489,2.1492,2.1495,2.1496,2.1507,2.1513,2.1512,2.1512,2.1518,2.1524,2.1523,2.1526,2.1533,2.153,2.1501,2.1496,2.1492,2.1488,2.1534,2.1534,2.1561,2.1562,2.1562]}]]